Starlink 31435

operational
NORAD ID: 59004 Int'l Des: 2024-036 Owner: SPXS Country: US Constellation: starlink
LEOCIRCULAR

Starlink 31435について

説明を読み込み中...

リアルタイム位置

3D地球を読み込み中...

次回通過

高度履歴

Altitude vs Time

uPlot chart will show altitude changes over time

軌道要素

1 59004U 24036G 25304.28057331 -.00000102 00000-0 86667-5 0 9998
2 59004 53.1606 318.9707 0000893 89.3777 270.7326 15.30188537 95526
Epoch: Oct 31, 2025 • Age: 6 hours

現在のステータス

高度 475.4 km
速度 7.63 km/s
衛星直下点 18.44°N, 95.46°E
打ち上げ日 Feb 23, 2024
運用期間 1.6 years
タイプ internet

技術仕様

分類 Payload
質量 730.00 kg
乾燥質量 700.00 kg
総質量 730.00 kg
長さ 0.30 m
直径 4.10 m
スパン 29.00 m
形状 Box + pan
製造者 SPXS
バスタイプ Starlink V2M
フェーズステータス In Orbit
所有者/国 SPXS/US

大規模コンステレーション

Loading constellations...